Wind_Speed
22 22 23 23 24 24 22 21 21 21 22 23 23 22 22 23 23 24 23 22 22 22 21 20 20 19 18 17 16 16 16 16 15 15 14 14 14 13 13 12 11 11 10 9 9 9 8 7 7
23 23 24 24 25 24 22 21 22 23 23 24 24 24 24 24 24 24 24 24 24 23 23 22 21 21 20 19 18 18 18 18 17 17 16 15 15 15 14 14 13 12 12 11 10 10 9 8 8
24 24 24 25 25 23 23 22 23 23 24 24 25 25 25 24 25 25 25 25 25 25 24 24 23 22 21 21 20 20 20 19 19 18 18 17 16 16 16 15 15 14 13 12 11 11 10 10 9
24 25 25 25 24 24 24 24 24 24 25 25 25 26 25 25 26 25 26 26 26 26 25 25 25 24 23 23 22 21 21 21 20 20 19 19 18 18 17 17 16 15 15 14 13 12 12 11 11
24 25 25 25 25 25 25 25 26 26 26 26 26 26 26 26 27 27 27 27 27 27 27 26 26 25 24 24 23 22 22 22 22 22 21 21 20 19 19 18 17 16 15 15 15 15 14 13 13
25 25 26 25 25 25 26 26 26 26 26 26 27 27 26 26 27 27 27 27 28 28 28 28 28 27 26 25 24 24 23 23 23 23 23 22 22 21 20 20 19 18 18 17 16 16 15 15 14
25 25 25 25 25 26 26 26 27 27 27 26 26 26 26 27 27 27 27 28 28 28 29 28 29 29 28 27 26 25 24 24 24 24 24 24 23 23 22 21 21 20 20 19 18 18 17 16 16
25 25 25 25 25 26 26 26 27 27 26 27 26 26 27 27 27 27 28 28 29 29 29 29 29 29 29 29 28 27 27 26 26 26 25 25 25 24 23 22 21 21 21 20 19 19 18 17 17
27 27 26 25 25 26 26 26 26 26 27 27 27 27 27 28 28 28 28 28 29 30 30 30 30 30 29 29 30 30 29 28 27 28 27 27 27 26 25 24 23 21 22 22 21 20 20 19 18
29 29 27 27 26 26 26 26 26 26 26 27 27 28 28 28 28 29 28 29 30 30 31 31 31 31 30 30 29 30 30 30 29 29 29 29 28 28 28 27 26 24 23 23 22 22 22 21 21
31 30 29 29 28 27 26 26 26 26 26 27 28 28 29 29 29 29 29 30 30 30 31 31 32 32 31 31 31 30 29 30 30 30 30 30 30 30 29 29 28 28 26 25 24 23 23 22 22
32 31 30 30 30 29 28 28 28 27 27 29 29 30 30 30 30 30 31 31 31 31 31 33 32 33 33 32 32 32 31 31 30 30 31 31 31 31 31 31 31 30 29 27 27 26 25 24 23
34 32 32 32 32 31 30 30 29 28 29 30 30 30 30 30 30 30 30 31 31 32 32 32 33 33 34 34 33 33 33 33 32 32 32 32 32 33 33 33 32 31 31 30 28 28 27 27 26
35 34 34 34 34 33 32 32 31 29 31 31 31 30 31 30 31 30 30 30 30 31 33 33 33 33 34 34 34 34 33 34 34 34 33 33 33 34 34 34 34 33 33 32 31 30 29 29 28
37 36 36 36 36 35 34 33 32 31 32 31 31 31 31 31 31 30 31 31 31 32 32 32 33 34 34 35 35 35 35 35 35 34 35 35 35 35 35 35 36 35 34 33 33 32 32 31 30
38 38 38 37 37 36 36 34 33 34 33 32 32 32 32 31 31 31 31 32 32 33 33 32 33 33 34 35 36 37 36 35 34 35 35 36 36 36 36 36 37 38 37 36 34 34 33 33 32
40 40 39 38 38 38 38 36 34 35 35 34 34 33 33 32 32 32 32 33 33 34 34 33 34 34 34 35 36 38 38 36 36 36 37 37 37 38 38 38 38 39 40 39 37 36 35 34 34
40 40 40 40 40 40 40 38 36 36 36 35 35 34 33 33 33 33 32 34 34 34 35 34 34 35 36 36 37 38 38 38 38 37 38 38 38 38 39 40 40 40 39 39 38 38 37 37 36
42 42 42 41 41 41 41 40 38 38 38 37 36 36 35 34 34 34 34 34 35 36 35 35 35 36 37 37 38 38 39 40 39 39 39 39 40 40 40 40 41 41 40 39 39 39 39 38 38
43 43 42 42 42 42 42 42 39 39 39 38 37 36 35 35 35 35 35 35 35 36 36 36 37 37 38 38 39 39 40 41 41 40 40 40 41 42 42 41 42 41 41 41 41 40 40 39 39
43 43 42 43 43 44 45 44 41 40 40 39 38 37 36 36 35 36 36 36 35 35 36 37 38 38 38 38 39 39 40 41 41 41 41 41 41 42 43 42 43 43 41 40 40 41 41 41 41
44 43 43 43 43 44 44 46 42 42 41 40 39 38 37 37 36 36 37 36 36 36 37 37 38 38 38 38 38 38 39 40 41 41 41 42 42 43 44 43 44 44 43 42 42 41 42 42 42
44 43 43 43 44 44 44 46 43 42 42 40 39 39 38 38 38 37 37 37 37 37 37 38 38 38 38 38 38 38 38 39 41 41 41 41 41 41 43 43 45 45 45 45 44 43 44 44 45
43 43 44 44 44 46 43 45 44 41 40 40 39 39 39 39 39 39 38 38 38 37 38 38 39 39 40 39 39 39 39 40 41 41 42 42 42 42 43 44 45 45 45 46 46 45 45 45 46
43 43 44 45 46 47 44 45 44 41 39 38 38 39 39 39 40 40 39 38 38 38 38 38 38 39 40 40 40 40 40 40 41 42 43 43 44 44 44 45 46 46 46 46 47 47 47 47 47
42 42 43 44 46 46 46 45 43 41 39 37 37 38 38 38 39 40 39 38 39 39 39 38 38 38 39 39 39 40 40 40 42 42 43 44 44 44 45 46 47 48 48 49 49 49 49 49 49
41 41 41 43 45 45 46 45 43 41 38 36 36 37 37 37 37 38 39 38 38 38 39 39 39 38 38 38 38 39 40 40 41 42 43 43 44 44 46 46 47 47 48 49 50 50 50 50 50
40 40 39 41 43 44 45 44 43 40 38 36 36 36 36 36 36 37 38 37 37 37 37 38 38 38 38 38 39 39 40 40 41 41 41 41 43 44 45 46 46 46 46 47 48 49 50 51 51
38 39 40 40 41 41 42 43 40 39 39 36 35 36 36 37 37 36 37 38 38 38 37 37 37 37 38 38 38 39 39 40 40 41 40 41 42 43 44 45 45 45 45 46 47 48 48 49 50
35 36 38 38 39 40 40 40 38 38 38 38 37 36 36 37 37 37 37 38 37 37 38 38 37 37 38 38 38 38 39 39 39 40 40 40 41 42 43 43 43 44 44 45 46 46 46 48 49
Wind_Direction
250 249 249 249 249 250 251 250 248 246 245 245 245 245 244 243 242 241 241 239 237 236 235 236 236 236 235 234 234 234 232 231 231 232 230 226 223 220 219 218 215 212 211 212 214 216 221 223 221
252 250 250 249 250 251 251 251 249 247 247 246 245 245 244 243 243 242 241 238 237 236 236 236 236 236 236 236 235 234 234 234 233 234 231 228 225 223 223 222 219 217 216 216 217 220 225 227 227
252 250 250 250 251 252 252 250 249 248 247 247 247 246 245 244 243 242 239 238 236 236 236 236 236 236 237 237 237 235 235 234 234 233 232 230 228 225 226 225 222 222 223 222 223 223 226 230 232
253 251 250 250 251 252 252 251 250 248 248 248 248 247 246 244 243 242 240 238 236 234 235 236 237 236 237 237 238 237 236 236 234 233 232 231 229 228 228 228 225 225 227 226 226 227 230 233 237
254 252 252 251 252 252 252 252 251 249 249 249 249 248 246 245 244 243 241 239 236 235 235 236 237 236 237 237 237 237 236 236 235 234 233 232 231 231 230 230 228 227 229 230 231 232 235 238 240
255 253 253 253 253 252 252 252 252 251 250 250 249 248 246 244 242 242 241 239 236 236 235 236 236 236 237 238 238 238 237 236 235 234 233 234 233 232 232 231 231 230 231 233 234 236 239 240 243
255 254 254 254 254 253 253 253 253 252 251 250 248 247 245 244 243 241 241 239 237 236 236 237 236 236 237 238 238 238 238 237 236 235 233 233 233 233 232 232 233 233 234 235 236 239 240 242 246
256 255 255 255 254 254 254 254 254 253 251 250 248 247 245 244 243 242 241 241 240 238 238 238 236 237 237 237 238 238 238 238 237 236 235 234 234 233 233 233 233 233 235 236 238 241 242 244 246
256 255 256 255 255 255 255 254 254 253 252 250 249 247 246 244 244 243 243 242 241 239 238 239 236 236 237 238 238 238 239 239 239 238 236 236 235 235 235 235 235 236 237 238 239 241 243 245 248
256 256 255 255 255 256 256 255 254 253 252 251 250 248 247 245 244 245 244 243 243 240 238 239 238 237 237 238 238 239 239 239 240 240 238 237 237 237 236 237 237 238 239 241 242 243 245 247 249
257 257 255 255 255 255 255 255 254 254 253 253 251 249 248 247 246 246 246 245 243 241 240 239 239 237 237 238 239 239 239 240 240 240 239 239 238 239 239 238 239 241 243 244 245 247 248 249 251
257 256 256 255 255 255 255 255 255 254 254 253 252 251 250 248 247 247 246 244 242 242 241 240 241 238 239 239 240 240 240 241 240 240 240 240 239 240 240 241 242 243 244 245 246 249 249 250 251
257 256 255 255 255 256 256 255 255 255 254 253 253 252 251 250 249 248 247 244 244 243 241 242 241 239 239 240 240 241 241 242 242 241 241 241 241 241 241 242 243 244 245 246 248 249 249 251 252
257 255 255 255 255 256 256 255 255 254 254 253 253 252 252 251 250 248 247 246 245 244 243 245 242 239 239 240 241 242 243 243 243 243 243 243 243 243 244 244 243 244 245 246 247 248 250 251 253
256 255 255 254 255 255 256 255 255 254 253 253 252 252 252 252 251 249 248 246 245 245 244 246 244 243 241 241 242 242 243 244 243 244 244 244 245 245 245 246 245 245 246 246 248 249 250 251 252
256 255 255 254 254 255 255 254 255 254 254 253 251 251 251 252 251 249 247 246 246 245 245 246 245 244 244 243 243 243 243 244 245 246 246 246 246 246 246 247 247 246 246 247 248 249 250 252 252
255 256 255 254 253 254 254 254 253 254 254 253 251 251 251 251 250 249 247 246 246 245 245 245 244 244 244 244 244 244 244 245 246 248 248 248 248 248 248 248 248 248 247 247 249 250 251 252 253
258 256 255 255 254 253 253 253 252 252 252 252 251 250 251 250 250 249 248 248 247 246 246 245 245 245 245 246 246 246 245 246 247 248 248 248 248 249 249 249 249 249 248 248 249 250 252 252 252
257 256 255 255 254 254 253 253 251 251 251 251 251 250 250 249 249 249 250 250 248 248 248 246 246 247 247 247 248 248 247 247 247 247 249 249 249 250 250 251 250 250 250 250 251 252 253 253 253
255 255 256 255 254 254 253 252 250 250 251 250 250 249 249 249 248 249 250 250 249 249 248 248 248 248 248 248 248 248 248 248 248 248 249 250 251 251 251 252 251 250 251 251 253 254 254 253 253
253 255 255 255 254 254 254 252 249 248 249 249 249 248 248 248 248 248 249 250 249 250 250 250 250 249 248 249 249 248 249 250 249 250 251 252 253 253 252 253 251 249 250 252 254 255 255 254 253
253 253 254 254 254 254 253 253 248 248 248 248 249 248 248 248 248 248 249 250 251 250 251 251 250 250 250 251 250 250 250 252 251 251 252 252 253 253 253 253 252 250 251 252 254 255 256 255 254
252 251 252 253 254 253 252 253 250 248 247 247 248 247 247 247 247 248 249 250 251 250 251 251 251 252 252 253 253 252 252 253 252 251 252 253 254 255 254 254 253 252 252 252 253 254 255 256 255
251 251 250 251 252 252 251 253 251 248 247 247 247 246 246 246 247 247 249 250 251 250 251 252 252 253 253 254 254 254 254 254 254 253 253 253 254 256 255 255 254 253 253 253 253 254 255 257 256
250 249 250 250 250 251 250 252 251 250 249 248 246 245 246 246 246 247 249 250 250 250 251 251 252 252 253 254 254 254 254 254 254 254 253 254 255 256 256 254 255 254 254 253 253 254 255 256 256
249 249 249 250 252 253 252 252 251 251 251 250 247 246 246 246 247 248 249 250 251 251 251 251 252 253 253 254 254 254 255 255 256 256 255 255 255 255 254 254 255 255 255 254 254 254 255 255 255
247 247 248 249 251 252 252 252 251 251 251 250 248 247 246 246 247 248 249 250 251 251 251 251 252 253 252 253 254 254 255 256 257 257 257 256 256 256 255 254 255 256 256 256 254 254 255 255 255
248 247 245 245 247 250 251 251 250 249 250 250 249 248 246 247 247 247 248 250 252 251 251 251 251 251 253 254 254 255 256 256 256 257 257 257 257 256 255 255 256 256 257 256 256 256 256 256 255
246 244 244 245 245 247 250 250 249 251 251 251 248 247 246 246 247 248 248 250 251 251 251 252 251 252 254 254 255 256 256 256 256 256 256 257 257 257 255 255 256 257 257 256 256 257 257 256 255
245 243 242 242 243 245 248 250 249 250 250 250 249 248 247 248 247 247 248 248 249 250 251 253 253 253 254 255 255 256 257 256 258 258 257 258 259 258 255 255 256 257 257 257 257 257 257 255 255
Height
5818 5819 5820 5821 5822 5823 5824 5825 5826 5827 5827 5828 5829 5830 5832 5833 5835 5838 5837 5837 5838 5840 5841 5843 5844 5845 5847 5848 5849 5850 5851 5852 5853 5854 5855 5856 5857 5857 5858 5859 5860 5861 5862 5863 5863 5864 5865 5866 5866
5814 5815 5816 5816 5817 5818 5820 5820 5821 5822 5822 5823 5824 5825 5826 5827 5828 5830 5831 5832 5834 5836 5837 5839 5840 5842 5843 5845 5846 5847 5848 5849 5850 5851 5852 5853 5854 5855 5856 5857 5858 5859 5860 5861 5862 5862 5863 5864 5865
5809 5809 5811 5811 5812 5813 5814 5815 5816 5816 5817 5818 5819 5819 5821 5822 5823 5824 5826 5827 5829 5831 5833 5834 5836 5838 5839 5841 5842 5844 5845 5846 5847 5848 5849 5850 5851 5852 5853 5854 5855 5857 5858 5859 5859 5860 5861 5862 5863
5804 5805 5806 5807 5807 5808 5808 5809 5810 5810 5811 5812 5813 5814 5815 5817 5818 5819 5820 5822 5824 5826 5828 5829 5831 5833 5835 5837 5838 5840 5841 5842 5843 5844 5846 5847 5848 5849 5851 5852 5853 5854 5855 5856 5857 5858 5859 5860 5861
5798 5799 5800 5801 5802 5802 5803 5803 5804 5805 5805 5806 5807 5808 5810 5811 5812 5813 5814 5816 5818 5820 5823 5825 5826 5828 5830 5832 5834 5835 5837 5838 5839 5841 5842 5843 5845 5846 5847 5849 5850 5851 5852 5853 5854 5855 5856 5857 5858
5793 5794 5795 5795 5796 5796 5797 5797 5798 5799 5800 5800 5801 5802 5804 5805 5806 5807 5809 5811 5813 5815 5817 5819 5821 5823 5825 5827 5829 5831 5832 5834 5835 5837 5838 5840 5841 5842 5844 5845 5847 5848 5849 5850 5851 5852 5853 5854 5855
5788 5788 5788 5789 5790 5790 5791 5791 5792 5792 5793 5794 5795 5796 5797 5798 5800 5802 5803 5805 5807 5809 5811 5813 5815 5817 5820 5822 5824 5826 5828 5829 5831 5832 5834 5835 5837 5839 5840 5842 5843 5844 5845 5846 5847 5849 5850 5850 5851
5781 5782 5782 5783 5784 5784 5785 5785 5785 5786 5787 5788 5789 5790 5791 5793 5794 5796 5797 5799 5801 5803 5805 5807 5809 5812 5814 5816 5818 5821 5823 5824 5826 5828 5830 5831 5833 5835 5836 5838 5839 5841 5842 5843 5844 5845 5846 5847 5848
5775 5777 5777 5777 5778 5778 5778 5779 5779 5780 5781 5781 5782 5784 5785 5786 5788 5789 5791 5793 5795 5797 5799 5801 5803 5805 5808 5810 5813 5815 5817 5819 5821 5823 5825 5827 5828 5830 5832 5834 5835 5837 5838 5839 5840 5841 5842 5843 5843
5768 5769 5771 5771 5771 5772 5772 5772 5773 5774 5774 5775 5776 5777 5778 5780 5782 5783 5785 5787 5788 5790 5792 5795 5797 5799 5802 5804 5806 5809 5811 5813 5815 5818 5820 5822 5824 5825 5827 5829 5831 5832 5834 5835 5836 5837 5837 5838 5839
5761 5763 5764 5764 5764 5765 5765 5766 5766 5767 5768 5769 5769 5770 5771 5773 5775 5777 5778 5780 5782 5783 5786 5788 5791 5793 5795 5798 5800 5803 5805 5807 5810 5812 5814 5816 5818 5820 5822 5824 5826 5827 5829 5830 5831 5832 5833 5833 5834
5754 5755 5755 5756 5757 5757 5758 5759 5760 5761 5762 5762 5762 5764 5765 5767 5768 5770 5771 5773 5775 5777 5779 5782 5784 5786 5789 5791 5794 5796 5799 5801 5804 5806 5808 5810 5812 5815 5817 5818 5820 5822 5823 5825 5826 5827 5828 5828 5829
5745 5747 5748 5748 5749 5750 5751 5752 5752 5754 5754 5754 5755 5757 5758 5760 5761 5762 5764 5766 5768 5770 5772 5774 5777 5779 5782 5784 5787 5790 5792 5795 5797 5799 5802 5804 5806 5808 5810 5812 5814 5816 5817 5819 5820 5821 5822 5823 5824
5737 5738 5739 5740 5740 5742 5743 5744 5745 5748 5746 5747 5748 5750 5751 5752 5754 5755 5757 5759 5761 5763 5765 5767 5770 5772 5774 5777 5780 5783 5785 5788 5790 5792 5795 5797 5800 5802 5804 5806 5807 5809 5811 5812 5814 5815 5816 5817 5818
5727 5729 5730 5731 5732 5733 5735 5736 5738 5739 5738 5740 5741 5742 5743 5745 5746 5748 5750 5752 5754 5755 5758 5760 5762 5765 5767 5770 5773 5775 5777 5780 5783 5785 5788 5790 5793 5794 5796 5798 5800 5802 5804 5805 5807 5808 5810 5811 5812
5717 5718 5720 5723 5723 5724 5727 5729 5731 5730 5730 5732 5733 5734 5736 5737 5739 5740 5742 5744 5746 5748 5750 5753 5755 5757 5760 5762 5765 5767 5769 5772 5775 5778 5780 5782 5785 5787 5788 5791 5793 5794 5796 5798 5799 5801 5803 5804 5805
5707 5709 5711 5713 5714 5715 5716 5720 5722 5721 5722 5723 5725 5726 5728 5729 5731 5733 5735 5736 5738 5740 5743 5745 5747 5750 5752 5754 5756 5759 5762 5765 5768 5770 5773 5775 5777 5779 5781 5782 5784 5786 5788 5790 5792 5793 5795 5796 5797
5699 5700 5701 5703 5704 5705 5706 5710 5712 5712 5713 5715 5716 5718 5720 5721 5723 5725 5726 5728 5730 5732 5734 5737 5739 5742 5744 5746 5748 5751 5754 5757 5759 5762 5764 5766 5768 5770 5772 5774 5776 5778 5779 5781 5783 5785 5787 5788 5789
5686 5688 5689 5692 5693 5694 5696 5699 5701 5702 5703 5706 5707 5709 5711 5713 5714 5716 5718 5720 5722 5724 5726 5729 5731 5733 5735 5738 5740 5743 5745 5748 5750 5753 5755 5757 5759 5761 5763 5765 5767 5769 5771 5773 5774 5776 5778 5779 5781
5674 5676 5678 5680 5682 5683 5684 5687 5691 5692 5694 5696 5698 5700 5702 5704 5705 5707 5709 5711 5714 5716 5718 5720 5722 5724 5727 5729 5731 5733 5736 5738 5741 5743 5746 5747 5749 5751 5753 5756 5758 5759 5761 5763 5765 5767 5769 5771 5772
5662 5665 5667 5668 5670 5670 5672 5675 5680 5682 5684 5686 5688 5690 5692 5695 5697 5699 5701 5703 5705 5707 5710 5711 5713 5715 5718 5720 5722 5724 5726 5729 5731 5734 5736 5738 5740 5741 5743 5746 5747 5750 5752 5754 5756 5758 5760 5762 5763
5650 5654 5655 5656 5657 5658 5661 5662 5670 5671 5674 5676 5679 5681 5683 5685 5688 5690 5692 5694 5696 5699 5701 5703 5704 5706 5709 5710 5712 5714 5717 5720 5722 5724 5726 5728 5730 5732 5733 5735 5737 5740 5742 5745 5746 5748 5750 5752 5754
5639 5641 5643 5644 5644 5646 5649 5650 5657 5660 5663 5667 5669 5671 5674 5676 5678 5681 5683 5685 5687 5689 5691 5694 5695 5697 5699 5701 5703 5705 5707 5710 5712 5714 5716 5718 5720 5722 5724 5725 5727 5730 5732 5734 5737 5738 5740 5742 5744
5626 5628 5630 5631 5631 5633 5639 5639 5644 5650 5654 5657 5659 5661 5663 5666 5668 5671 5673 5675 5677 5680 5682 5684 5686 5688 5690 5692 5694 5696 5698 5700 5702 5704 5706 5708 5710 5711 5713 5715 5717 5719 5722 5724 5726 5727 5729 5731 5732
5613 5616 5617 5618 5618 5623 5629 5627 5634 5639 5643 5646 5649 5651 5653 5656 5659 5661 5664 5666 5668 5670 5672 5674 5676 5678 5680 5682 5684 5686 5687 5689 5691 5693 5695 5697 5699 5700 5702 5704 5706 5709 5710 5712 5714 5716 5718 5719 5720
5602 5605 5607 5608 5609 5613 5615 5617 5625 5629 5632 5635 5638 5640 5643 5646 5649 5651 5654 5656 5658 5660 5662 5665 5667 5668 5670 5672 5674 5675 5677 5679 5681 5682 5684 5686 5687 5689 5690 5692 5694 5696 5698 5700 5701 5703 5705 5707 5708
5589 5592 5596 5597 5598 5600 5602 5607 5614 5618 5621 5625 5627 5630 5632 5635 5638 5641 5644 5646 5648 5651 5653 5655 5657 5658 5660 5662 5663 5665 5667 5668 5670 5671 5672 5674 5676 5677 5678 5680 5682 5683 5685 5687 5688 5690 5692 5693 5695
5578 5581 5583 5584 5586 5588 5592 5597 5603 5607 5611 5614 5617 5620 5622 5625 5628 5631 5634 5636 5638 5641 5643 5645 5647 5649 5650 5652 5653 5655 5656 5658 5659 5660 5662 5663 5664 5665 5666 5668 5669 5671 5672 5674 5676 5677 5679 5680 5682
5567 5570 5571 5574 5576 5579 5582 5589 5593 5597 5600 5604 5606 5609 5612 5615 5618 5621 5623 5626 5628 5630 5633 5635 5637 5639 5640 5642 5643 5645 5646 5647 5648 5649 5651 5652 5652 5653 5655 5656 5658 5659 5660 5662 5663 5665 5666 5667 5669
5555 5558 5561 5564 5566 5569 5573 5580 5583 5586 5589 5592 5595 5598 5601 5604 5607 5610 5613 5615 5618 5620 5623 5625 5627 5629 5630 5632 5633 5634 5635 5637 5638 5639 5640 5641 5641 5642 5644 5645 5646 5647 5648 5650 5651 5652 5653 5655 5657